Home   Weather   Norman Wells   Past weeks

Flag for Canada Past Weather in Norman Wells, Northwest Territories, Canada — Yesterday and Last 2 Weeks

Now
37 °F

Fog.


Feels Like: 33 °F
Forecast: 36 / 58 °F
Wind: 6 mph from East

Location: Norman Wells

Current Time: Aug 31, 2016 at 8:36:37 AM

Latest Report: Aug 31, 2016 at 8:00 AM


Visibility: 30 mi

Pressure: 30.34 "Hg

Humidity: 93%

Dew Point: 36 °F

Location of Norman WellsLocation

Past Weather in Norman Wells — Graph

°F

Norman Wells Temperature Yesterday

Maximum temperature yesterday: 59 °F (at 4:00 PM)
Minimum temperature yesterday: 43 °F (at 11:00 PM)
Average temperature yesterday: 51 °F

High & Low Weather Summary for the Past Weeks

 TemperatureHumidityPressure
High79 °F (Aug 22, 4:00 PM)100% (Aug 16, 7:00 AM)30.48 "Hg (Aug 16, 7:00 AM)
Low37 °F (Aug 31, 7:00 AM)28% (Aug 26, 1:00 PM)29.65 "Hg (Aug 22, 1:00 PM)
Average58 °F74%30.08 "Hg
* Reported Aug 16 7:00 AM — Aug 31 7:00 AM, Norman Wells, Weather by CustomWeather, © 2016

Note: Actual official high and low records may vary slightly from our data, if they occured in-between our weather recording intervals... More about our weather records

Advertising

Norman Wells Weather History for the Previous 24 Hours

Scroll right to see more
 ConditionsComfort  
Time TempWeatherWind HumidityBarometerVisibility
7:00 AM
Wed, Aug 31
37 °FFog.6 mph100%30.34 "Hg30 mi
6:00 AM41 °FFog.6 mph93%30.35 "Hg30 mi
5:00 AM43 °FPassing clouds.6 mph93%30.37 "Hg30 mi
4:00 AM43 °FPassing clouds.5 mph93%30.38 "Hg30 mi
3:00 AM41 °FPassing clouds.3 mph93%30.39 "Hg30 mi
2:00 AM45 °FPassing clouds.5 mph93%30.39 "Hg30 mi
1:00 AM41 °FPassing clouds.5 mph93%30.40 "Hg30 mi
12:00 AM39 °FPassing clouds.5 mph93%30.42 "Hg30 mi
11:00 PM
Tue, Aug 30
43 °FScattered clouds.No wind87%30.40 "Hg30 mi
10:00 PM50 °FScattered clouds.3 mph76%30.40 "Hg30 mi
9:00 PM52 °FScattered clouds.5 mph72%30.40 "Hg30 mi
8:00 PM55 °FBroken clouds.6 mph59%30.40 "Hg30 mi
7:00 PM55 °FPartly sunny.6 mph63%30.42 "Hg30 mi
6:52 PM54 °FPartly sunny.5 mph67%30.42 "Hg30 mi
6:00 PM57 °FSprinkles. Partly sunny.8 mph63%30.42 "Hg30 mi
5:00 PM54 °FSprinkles. Broken clouds.3 mph88%30.43 "Hg30 mi
4:00 PM59 °FBroken clouds.13 mph51%30.44 "Hg30 mi
3:00 PM55 °FSprinkles. Partly sunny.6 mph63%30.46 "Hg30 mi
2:00 PM55 °FBroken clouds.6 mph63%30.46 "Hg30 mi
1:00 PM55 °FBroken clouds.12 mph67%30.46 "Hg30 mi
12:00 PM55 °FScattered clouds.10 mph67%30.47 "Hg30 mi
11:00 AM52 °FBroken clouds.10 mph77%30.48 "Hg30 mi
10:00 AM52 °FPartly sunny.12 mph77%30.47 "Hg30 mi
9:00 AM46 °FPartly cloudy.3 mph87%30.47 "Hg30 mi
8:00 AM45 °FPassing clouds.5 mph93%30.47 "Hg30 mi
Weather by CustomWeather, © 2016

See weather overviewHow to use our weather pages